Portada
METAR-TAF:

METAR-TAF

Aeroports :

Delta County Airport

Escanaba, Michigan, Estats Units d'Amèrica

latitud: 45-45N, longitud: 087-02W, altitud: 180 m

Observació

L'informe es va fer fa 1 hora i 8 minuts, a les 08:56 UTC
Vent 4 kt del Nord-Oest
Temperatura -2°C
Humitat 86%
Pressió 1015 hPa
Visibilitat: 16.1 km
Cel clar

METAR: KESC 220856Z AUTO 31004KT 10SM CLR M02/M04 A2996 RMK AO2 SLP172 T10171044 55004 FZRANO

Hora: 06:04 (10:04 UTC)


TAF: manca

Observacions i pronòstics meteorològics de més de 4000 aeroports (METAR i TAF).

Les estacions disponibles són els punts grocs i vermells al mapa.

Posi el ratolí al punt desitjat per veure el nom de l'estació.

Feu clic per veure les observacions i els pronòstics meteorològics.

Per canviar el mapa: feu clic els botons verds amb una creu de color negre per apropar; al botó verd amb un guió per allunyar la imatge; o en les fletxes verdes per a mapes adjacents.


METAR-TAF: